EW4479 Weather Reports


time (UTC)temp
F
wind
direction
speed
knots
gust
knots
rain 1hr
in
rain 24hr
in
rain mn
in
humidity
%
barometer
mb
20260507095431 52 284 0.9 8.7 0.00 0.08 0.00 87 1015.5
20260507094930 51 285 3.5 8.7 0.00 0.08 0.00 84 1015.4
20260507093431 52 327 2.6 10.4 0.00 0.08 0.00 84 1015.3
20260507092929 52 290 1.7 10.4 0.00 0.08 0.00 84 1015.2
20260507092429 52 282 3.5 10.4 0.00 0.08 0.00 81 1015.2
20260507091429 52 344 2.6 7.0 0.00 0.08 0.00 81 1015.0
20260507090931 51 329 2.6 7.8 0.00 0.08 0.00 82 1015.1
20260507090429 51 321 0.9 7.8 0.00 0.08 0.00 83 1015.1
20260507085929 51 281 1.7 7.0 0.00 0.08 0.00 84 1014.9
20260507085428 50 288 1.7 7.0 0.00 0.08 0.00 84 1014.9
20260507084931 50 292 1.7 6.1 0.00 0.08 0.00 85 1014.8
20260507084433 50 281 1.7 6.1 0.00 0.08 0.00 86 1014.8
20260507083930 50 304 2.6 6.1 0.00 0.08 0.00 85 1014.6
20260507083432 50 304 2.6 7.8 0.00 0.08 0.00 86 1014.6
20260507082929 50 311 2.6 7.8 0.00 0.08 0.00 86 1014.5
20260507082428 51 296 3.5 7.8 0.00 0.08 0.00 85 1014.4
20260507081929 51 284 2.6 7.8 0.00 0.08 0.00 85 1014.3
20260507080929 51 278 1.7 6.1 0.00 0.08 0.00 85 1014.3
20260507080429 51 277 1.7 7.8 0.00 0.08 0.00 83 1014.2
20260507075928 51 291 2.6 7.8 0.00 0.08 0.00 82 1014.1
20260507074922 51 349 1.7 9.6 0.00 0.08 0.00 81 1013.9
20260507074421 51 273 0.0 9.6 0.00 0.08 0.00 82 1014.1
20260507073922 51 18 2.6 9.6 0.00 0.08 0.00 81 1013.8
20260507073420 52 261 3.5 9.6 0.00 0.08 0.00 80 1013.8
20260507072920 52 323 3.5 9.6 0.00 0.08 0.00 81 1013.8
20260507072419 52 233 0.9 13.0 0.00 0.08 0.00 81 1013.7
20260507071921 52 256 5.2 13.0 0.00 0.08 0.00 80 1013.7
20260507071420 52 265 6.1 12.2 0.00 0.08 0.00 80 1013.6
20260507070921 52 288 2.6 8.7 0.00 0.08 0.00 80 1013.6
20260507070419 52 280 3.5 10.4 0.00 0.08 0.00 81 1013.6
20260507065916 51 270 3.5 11.3 0.00 0.08 0.00 81 1013.6
20260507064914 51 290 1.7 8.7 0.00 0.08 0.00 82 1013.6
20260507064414 51 284 1.7 8.7 0.00 0.08 0.00 83 1013.5
20260507063909 51 302 1.7 7.0 0.00 0.08 0.00 82 1013.5
20260507063408 51 257 2.6 7.8 0.00 0.08 0.00 83 1013.5
20260507062407 51 5 2.6 10.4 0.00 0.08 0.00 84 1013.5
20260507061401 50 284 2.6 9.6 0.00 0.08 0.00 84 1013.3
20260507060901 50 238 5.2 9.6 0.00 0.08 0.00 84 1013.3
20260507055859 50 207 4.3 8.7 0.00 0.08 0.00 84 1013.2
20260507055353 50 238 2.6 7.0 0.00 0.08 0.00 85 1013.2
20260507054847 49 239 3.5 7.0 0.00 0.08 0.00 85 1013.2
20260507054346 49 319 1.7 6.1 0.00 0.08 0.00 85 1013.1
20260507053845 49 272 2.6 6.1 0.00 0.08 0.00 86 1013.1
20260507053344 49 257 1.7 6.1 0.00 0.08 0.00 86 1013.0
20260507052844 49 248 2.6 8.7 0.00 0.08 0.00 86 1013.0
20260507051337 49 265 4.3 7.0 0.00 0.08 0.00 86 1012.8
20260507050835 48 275 3.5 7.0 0.00 0.08 0.00 87 1012.8
20260507050335 48 238 2.6 7.8 0.00 0.08 0.00 87 1012.6
20260507045830 48 270 3.5 10.4 0.00 0.08 0.00 87 1012.6
20260507045329 48 286 5.2 10.4 0.00 0.08 0.00 87 1012.5
20260507044831 48 290 2.6 7.8 0.00 0.08 0.00 87 1012.5
20260507044330 48 258 3.5 7.0 0.00 0.08 0.00 87 1012.4
20260507043830 48 270 3.5 7.8 0.00 0.08 0.00 87 1012.4
20260507043329 48 254 4.3 7.8 0.00 0.08 0.00 87 1012.4
20260507042832 48 259 2.6 7.0 0.00 0.08 0.00 87 1012.4
20260507042329 47 225 2.6 7.0 0.00 0.08 0.00 88 1012.4
20260507041828 47 275 1.7 5.2 0.00 0.08 0.00 88 1012.2
20260507041329 47 217 1.7 5.2 0.00 0.08 0.00 88 1012.2
20260507040829 47 278 2.6 5.2 0.00 0.08 0.00 89 1012.1
20260507040331 47 265 1.7 4.3 0.00 0.08 0.00 89 1012.2
20260507035330 47 225 1.7 6.1 0.00 0.08 0.00 89 1012.2
20260507034829 47 279 0.9 3.5 0.00 0.08 0.00 89 1012.1
20260507034331 47 257 0.9 5.2 0.00 0.08 0.00 89 1012.0
20260507033831 47 269 0.9 5.2 0.00 0.08 0.00 89 1012.0
20260507031828 46 260 3.5 7.0 0.00 0.08 0.00 90 1011.9
20260507031330 46 254 2.6 7.0 0.00 0.08 0.00 91 1011.9
20260507030829 46 275 0.9 7.0 0.00 0.08 0.00 91 1012.0
20260507030329 46 259 2.6 7.0 0.00 0.08 0.00 92 1011.9
20260507025829 45 329 0.9 5.2 0.00 0.08 0.00 92 1011.9
20260507025329 45 263 1.7 5.2 0.00 0.08 0.00 92 1011.9
20260507024828 45 275 1.7 5.2 0.00 0.08 0.00 92 1011.9
20260507023829 45 269 1.7 4.3 0.00 0.08 0.00 92 1011.9
20260507023330 45 236 1.7 5.2 0.00 0.08 0.00 92 1011.7
20260507022828 45 264 1.7 5.2 0.00 0.08 0.00 92 1011.7
20260507022329 45 268 1.7 5.2 0.00 0.08 0.00 92 1011.8
20260507021828 45 279 0.9 3.5 0.00 0.08 0.00 91 1011.9
20260507021343 45 288 0.0 3.5 0.00 0.08 0.00 91 1011.9
20260507020830 45 232 0.9 2.6 0.00 0.08 0.00 91 1011.9
20260507020331 45 269 0.9 2.6 0.00 0.08 0.00 91 1011.8
20260507015832 45 249 0.0 1.7 0.00 0.08 0.00 91 1011.7
20260507014829 46 233 0.0 1.7 0.00 0.08 0.00 90 1011.8
20260507014329 46 268 0.0 2.6 0.00 0.08 0.00 90 1011.8
20260507013830 46 239 0.0 2.6 0.00 0.08 0.00 90 1011.7
20260507013328 46 227 0.0 5.2 0.00 0.08 0.00 90 1011.6
20260507012829 46 250 1.7 5.2 0.00 0.08 0.00 90 1011.6
20260507012328 46 225 0.9 3.5 0.00 0.08 0.00 89 1011.6
20260507011330 47 264 1.7 6.1 0.00 0.08 0.00 89 1011.6
20260507010330 47 271 0.9 2.6 0.00 0.08 0.00 89 1011.6
20260507005829 47 294 0.0 1.7 0.00 0.08 0.00 89 1011.7
20260507005330 47 269 0.0 7.8 0.00 0.08 0.00 89 1011.7
20260507004830 47 250 1.7 7.8 0.00 0.08 0.00 89 1011.7
20260507004329 47 258 2.6 6.1 0.00 0.08 0.00 89 1011.5
20260507003830 47 267 1.7 6.1 0.00 0.08 0.00 89 1011.5
20260507003330 47 263 1.7 6.1 0.00 0.08 0.00 89 1011.6
20260507002829 47 283 2.6 5.2 0.00 0.08 0.00 88 1011.5
20260507002328 47 271 1.7 6.1 0.00 0.08 0.00 88 1011.5
20260507001825 48 278 1.7 6.1 0.00 0.08 0.00 88 1011.5
20260507001319 48 261 1.7 5.2 0.00 0.08 0.00 88 1011.5
20260507000819 48 255 1.7 5.2 0.00 0.08 0.00 87 1011.5
20260507000317 48 247 1.7 6.1 0.00 0.08 0.00 87 1011.6
20260506235816 48 263 2.6 6.1 0.00 0.08 0.00 87 1011.6
20260506235315 48 236 1.7 3.5 0.00 0.08 0.00 87 1011.7
20260506234813 48 281 0.9 6.1 0.00 0.08 0.00 87 1011.7
20260506234313 48 270 2.6 6.1 0.00 0.08 0.00 87 1011.7
20260506233812 48 255 1.7 6.1 0.00 0.08 0.00 87 1011.7
20260506233306 48 273 0.0 5.2 0.00 0.08 0.00 87 1011.6
20260506232806 48 296 1.7 5.2 0.00 0.08 0.00 87 1011.7
20260506232306 48 296 1.7 5.2 0.00 0.08 0.00 87 1011.7
20260506231315 48 283 1.7 7.8 0.00 0.08 0.00 86 1011.6
20260506230803 49 266 3.5 7.8 0.00 0.08 0.00 86 1011.5
20260506230300 49 265 3.5 7.0 0.00 0.08 0.00 86 1011.5
20260506225758 49 276 2.6 7.0 0.00 0.08 0.00 86 1011.5
20260506225251 49 288 2.6 7.0 0.00 0.08 0.00 86 1011.4
20260506224750 49 270 2.6 7.0 0.00 0.08 0.00 86 1011.4
20260506224253 49 261 3.5 7.0 0.00 0.08 0.00 86 1011.4
20260506223745 49 284 3.5 8.7 0.00 0.08 0.00 86 1011.3
20260506223244 49 236 2.6 8.7 0.00 0.08 0.00 86 1011.3
20260506222747 49 289 3.5 7.0 0.00 0.08 0.00 86 1011.3
20260506222242 49 234 2.6 7.0 0.00 0.08 0.00 86 1011.1
20260506221740 49 273 2.6 7.0 0.00 0.08 0.00 86 1011.2
20260506221236 49 277 0.9 7.0 0.00 0.08 0.00 87 1011.2
20260506220731 49 246 2.6 7.8 0.00 0.08 0.00 86 1011.1
20260506220231 49 225 1.7 7.8 0.00 0.08 0.00 86 1011.1
20260506215731 49 219 1.7 8.7 0.00 0.08 0.08 87 1011.0
20260506215231 49 271 4.3 8.7 0.00 0.08 0.08 87 1011.0
20260506214731 49 236 3.5 7.8 0.00 0.08 0.08 87 1010.9
20260506214231 49 268 1.7 6.1 0.00 0.08 0.08 88 1010.9
20260506213731 49 273 1.7 6.1 0.00 0.08 0.08 87 1010.9
20260506213230 48 276 1.7 7.0 0.00 0.08 0.08 87 1010.9
20260506212732 49 281 2.6 7.0 0.00 0.08 0.08 87 1010.9
20260506212229 49 279 1.7 5.2 0.00 0.08 0.08 87 1010.7
20260506211729 48 279 1.7 8.7 0.00 0.08 0.08 88 1010.9
20260506210729 49 264 3.5 7.8 0.00 0.08 0.08 87 1010.9
20260506205729 49 272 2.6 7.0 0.00 0.08 0.08 87 1010.7
20260506205229 49 288 1.7 6.1 0.00 0.08 0.08 87 1010.6
20260506204728 49 300 2.6 6.1 0.00 0.08 0.08 88 1010.7
20260506203730 49 242 3.5 7.0 0.00 0.08 0.08 88 1010.5
20260506203230 49 288 1.7 6.1 0.00 0.08 0.08 88 1010.4
20260506202734 49 248 2.6 7.0 0.00 0.08 0.08 88 1010.4
20260506202229 49 243 2.6 7.0 0.00 0.08 0.08 88 1010.4
20260506201229 49 283 3.5 7.8 0.00 0.08 0.08 88 1010.4
20260506200231 49 281 3.5 7.0 0.00 0.08 0.08 88 1010.4
20260506195729 49 264 1.7 6.1 0.01 0.08 0.08 88 1010.3
20260506194728 49 273 1.7 6.1 0.02 0.08 0.08 88 1010.3
20260506194228 49 279 1.7 7.8 0.02 0.08 0.08 88 1010.3
20260506193729 49 234 2.6 7.8 0.02 0.08 0.08 89 1010.1
20260506193230 49 251 3.5 6.1 0.02 0.08 0.08 89 1010.1
20260506192729 50 270 1.7 7.0 0.02 0.08 0.08 89 1010.0
20260506191729 50 291 1.7 7.0 0.02 0.08 0.08 89 1009.9
20260506191229 50 263 1.7 6.1 0.02 0.08 0.08 89 1009.9
20260506190729 50 281 0.9 6.1 0.02 0.08 0.08 89 1009.8
20260506190229 50 284 2.6 9.6 0.02 0.08 0.08 89 1009.7
20260506185731 50 0 2.6 9.6 0.02 0.06 0.07 88 1009.7
20260506185229 50 279 2.6 7.0 0.02 0.06 0.07 88 1009.6
20260506184729 50 301 1.7 7.0 0.01 0.06 0.06 87 1009.5
20260506184228 51 268 1.7 7.0 0.00 0.06 0.06 86 1009.7
20260506183730 51 278 2.6 7.0 0.00 0.06 0.06 85 1009.5
20260506183243 51 263 1.7 7.8 0.00 0.06 0.06 84 1009.5
20260506182742 51 264 1.7 7.8 0.00 0.06 0.06 84 1009.5
20260506182229 51 277 1.7 6.1 0.00 0.06 0.06 83 1009.5
20260506181728 51 264 1.7 6.1 0.00 0.06 0.06 83 1009.5
20260506180730 51 281 3.5 7.8 0.00 0.06 0.06 83 1009.5
20260506175722 52 266 2.6 8.7 0.00 0.06 0.06 82 1009.5
20260506174718 52 267 3.5 13.0 0.00 0.06 0.06 80 1009.2
20260506174215 52 260 4.3 13.0 0.00 0.06 0.06 80 1009.3
20260506173715 53 285 3.5 13.9 0.00 0.06 0.06 79 1009.0
20260506173216 53 263 7.0 14.8 0.00 0.06 0.06 79 1008.7
20260506172716 53 285 7.0 14.8 0.00 0.06 0.06 78 1008.6
20260506172216 54 261 3.5 11.3 0.00 0.06 0.06 78 1008.3
20260506171710 54 265 4.3 12.2 0.00 0.06 0.06 78 1008.1
20260506171208 54 231 4.3 12.2 0.00 0.06 0.06 79 1008.0
20260506170704 54 309 5.2 12.2 0.00 0.06 0.06 81 1007.9
20260506170208 53 351 4.3 11.3 0.00 0.06 0.06 83 1007.9
20260506165709 53 286 2.6 13.0 0.00 0.06 0.06 84 1007.9
20260506165331 53 264 5.2 13.0 0.00 0.06 0.06 85 1008.0
20260506164832 53 275 5.2 13.0 0.00 0.06 0.06 85 1007.9
20260506164330 53 269 3.5 10.4 0.00 0.06 0.06 85 1007.8
20260506163329 53 248 6.1 13.9 0.00 0.06 0.06 84 1007.7
20260506162831 54 273 5.2 15.6 0.00 0.06 0.06 82 1007.7
20260506162330 55 280 7.0 19.1 0.00 0.06 0.06 79 1007.6
20260506161832 57 288 7.0 19.1 0.00 0.06 0.06 75 1007.6
20260506161330 59 244 3.5 7.8 0.00 0.06 0.06 79 1007.2
20260506160831 59 268 3.5 7.0 0.00 0.06 0.06 79 1006.7
20260506160330 60 265 2.6 6.1 0.00 0.06 0.06 79 1006.7
20260506155331 60 227 2.6 6.1 0.00 0.06 0.06 76 1006.6
20260506154832 61 288 1.7 5.2 0.00 0.06 0.06 75 1006.5
20260506154331 61 253 2.6 5.2 0.00 0.06 0.06 72 1006.3
20260506153329 62 237 1.7 4.3 0.01 0.06 0.06 71 1006.1
20260506152830 61 239 0.9 6.1 0.01 0.06 0.06 72 1006.0
20260506152329 61 241 1.7 6.1 0.01 0.06 0.06 72 1005.9
20260506151831 62 92 1.7 5.2 0.01 0.06 0.06 75 1006.0
20260506151329 62 195 0.9 4.3 0.01 0.06 0.06 76 1006.1
20260506150829 62 80 0.9 4.3 0.02 0.06 0.06 78 1006.0
20260506150329 61 221 1.7 4.3 0.02 0.06 0.06 79 1006.2
20260506145828 60 215 0.9 3.5 0.03 0.03 0.06 81 1006.2
20260506145328 59 186 0.9 2.6 0.04 0.03 0.06 86 1006.2
20260506144830 57 146 0.0 2.6 0.05 0.03 0.06 89 1006.4
20260506144330 57 122 0.9 2.6 0.06 0.03 0.06 89 1006.2
20260506143828 56 119 1.7 2.6 0.06 0.03 0.06 91 1006.1
20260506142829 56 125 0.9 1.7 0.05 0.03 0.05 93 1006.4
20260506142328 55 89 0.9 2.6 0.05 0.03 0.05 92 1006.7
20260506141829 55 114 0.9 6.1 0.05 0.03 0.05 91 1006.6
20260506141329 55 126 1.7 6.1 0.05 0.03 0.05 90 1006.8
20260506140828 56 300 0.0 1.7 0.04 0.03 0.04 89 1007.0
20260506135828 57 278 0.0 5.2 0.02 0.00 0.02 86 1007.1
20260506135329 58 265 1.7 3.5 0.02 0.00 0.02 82 1007.0
20260506134829 59 288 1.7 4.3 0.01 0.00 0.01 80 1006.8
20260506134330 60 327 0.9 5.2 0.00 0.00 0.00 76 1006.5
20260506133828 61 277 1.7 5.2 0.00 0.00 0.00 69 1006.4
20260506133331 62 325 0.9 2.6 0.00 0.00 0.00 68 1006.2
20260506132829 62 339 0.9 2.6 0.00 0.00 0.00 67 1005.9
20260506132331 61 352 0.0 2.6 0.00 0.00 0.00 69 1005.8
20260506131831 62 28 0.0 2.6 0.00 0.00 0.00 69 1005.5
20260506131332 62 19 0.9 1.7 0.00 0.00 0.00 69 1005.6
20260506130831 63 350 0.0 1.7 0.00 0.00 0.00 65 1005.7
20260506130343 62 5 0.0 0.9 0.00 0.00 0.00 67 1005.8
20260506125828 61 5 0.0 0.9 0.00 0.00 0.00 67 1005.7
20260506124829 62 5 0.9 3.5 0.00 0.00 0.00 67 1005.9
20260506124329 62 32 0.0 2.6 0.00 0.00 0.00 68 1005.9
20260506123829 62 43 0.9 2.6 0.00 0.00 0.00 69 1005.9
20260506123329 62 37 0.0 2.6 0.00 0.00 0.00 70 1006.1
20260506122828 62 38 0.9 2.6 0.00 0.00 0.00 68 1006.0
20260506122328 62 106 1.7 3.5 0.00 0.00 0.00 68 1006.0
20260506121831 62 103 1.7 3.5 0.00 0.00 0.00 69 1006.0
20260506120830 62 115 1.7 5.2 0.00 0.00 0.00 68 1006.1
20260506115829 62 95 0.0 2.6 0.00 0.00 0.00 67 1006.4
20260506114832 62 88 0.0 2.6 0.00 0.00 0.00 69 1006.5
20260506114329 62 86 1.7 2.6 0.00 0.00 0.00 68 1006.4
20260506113829 62 28 0.0 3.5 0.00 0.00 0.00 69 1006.5
20260506113329 62 27 0.0 3.5 0.00 0.00 0.00 71 1006.5
20260506112328 63 28 0.9 3.5 0.00 0.00 0.00 64 1006.8
20260506111829 65 94 0.9 3.5 0.00 0.00 0.00 67 1006.7
20260506111329 65 103 1.7 5.2 0.00 0.00 0.00 65 1006.7
20260506110329 64 99 1.7 5.2 0.00 0.00 0.00 66 1007.0
20260506105328 62 104 0.9 2.6 0.00 0.00 0.00 72 1007.1
20260506104830 61 128 0.0 2.6 0.00 0.00 0.00 67 1007.2
20260506104331 61 95 0.9 2.6 0.00 0.00 0.00 71 1007.2
20260506103829 60 31 0.0 2.6 0.00 0.00 0.00 71 1007.1
20260506103329 60 32 0.0 2.6 0.00 0.00 0.00 70 1007.0
20260506102828 60 22 1.7 2.6 0.00 0.00 0.00 72 1007.1
20260506102329 60 109 0.0 5.2 0.00 0.00 0.00 72 1007.3
20260506101329 61 110 0.9 2.6 0.00 0.00 0.00 73 1007.4
20260506095828 62 30 0.0 2.6 0.00 0.00 0.00 71 1007.4